Wind_Speed
29 26 25 23 19 17 17 17 16 14 15 14 15 16 20 18 15 14 13 11 11 9 9 8 7 7 5 4 3 2 1 3 3 1 4 8 8 11 11 12 10 9 8
30 27 24 24 20 20 19 18 17 16 16 18 17 13 15 21 19 16 16 16 13 13 9 8 7 7 7 6 4 4 4 3 5 5 1 3 6 4 5 5 10 6 7
29 27 24 22 21 19 19 18 17 15 15 16 17 17 15 17 18 18 19 17 14 11 11 9 10 10 9 10 6 5 4 3 2 3 3 1 1 4 6 8 8 9 10
29 26 23 20 20 19 17 15 14 15 15 17 17 16 16 17 17 18 17 17 16 14 13 13 13 13 13 10 9 7 5 4 3 4 3 2 1 2 4 8 8 5 12
26 22 20 18 18 18 18 15 12 12 12 13 17 14 17 17 19 19 18 17 17 16 14 13 13 8 8 8 11 9 7 6 5 5 3 1 1 1 3 4 4 4 9
16 15 10 9 10 11 13 14 13 12 13 12 12 15 17 19 20 21 20 19 19 18 18 17 17 14 10 10 11 11 7 7 7 5 3 2 1 1 1 2 3 4 2
10 11 15 14 9 6 8 10 10 8 7 7 8 11 13 14 20 23 22 21 20 20 19 19 15 11 10 9 12 10 7 4 2 2 3 3 4 4 3 2 3 6 8
7 7 12 14 15 11 6 6 6 3 2 3 5 8 9 12 13 12 15 18 17 18 11 12 9 9 9 9 9 8 5 2 2 3 3 4 7 6 3 2 3 7 7
10 10 12 11 11 11 7 5 4 3 3 4 5 8 11 13 12 8 9 8 8 8 12 11 11 10 10 9 9 9 10 13 14 11 13 12 9 8 6 6 5 7 3
13 12 10 8 9 8 4 4 3 1 3 4 6 9 12 19 17 8 6 4 6 7 9 13 12 9 8 8 9 13 17 16 18 18 19 18 17 16 13 11 7 8 6
11 8 10 8 6 6 6 6 6 5 4 6 4 3 5 8 11 10 14 5 4 11 12 9 8 6 6 8 11 14 18 19 18 19 19 18 17 17 17 17 14 12 13
11 11 10 10 6 7 5 6 7 5 5 8 8 7 6 5 2 9 13 12 12 13 15 12 11 8 8 8 11 14 16 17 16 16 16 17 17 16 16 15 14 14 14
12 11 11 10 8 8 7 8 10 9 10 10 9 8 7 8 7 8 9 13 15 14 12 11 10 10 10 13 15 15 15 14 14 14 15 15 14 13 11 10 7 9 10
11 12 11 11 12 11 11 9 10 9 9 7 6 6 5 5 7 10 10 10 10 17 17 18 20 20 19 19 17 16 15 15 14 15 14 12 10 8 9 9 9 4 6
12 12 12 11 10 10 10 10 8 8 6 7 7 5 4 4 4 5 6 10 15 18 18 18 18 18 18 17 17 17 16 15 14 12 11 10 9 8 10 9 10 9 11
10 9 9 10 11 11 12 13 9 9 7 7 6 5 7 6 5 3 6 12 13 15 17 19 15 10 10 10 11 11 11 12 12 10 9 10 9 9 10 10 9 10 10
10 9 8 8 9 9 9 11 15 13 10 9 9 8 8 7 9 10 13 14 11 13 17 13 14 14 12 11 11 10 11 9 8 8 8 9 8 8 8 9 8 10 10
8 8 9 10 9 7 6 7 6 8 10 12 10 9 11 11 12 12 13 11 12 10 14 16 16 14 13 12 10 11 11 10 8 9 9 8 8 7 6 7 9 9 7
6 6 6 4 5 7 7 8 8 9 9 10 10 11 13 12 16 15 12 16 16 15 11 11 12 13 12 10 10 9 9 10 9 8 9 8 8 7 8 8 6 6 6
5 5 6 5 6 4 6 7 7 7 7 8 8 9 13 14 13 15 15 16 16 13 10 11 10 10 10 10 9 8 8 7 7 7 7 7 6 5 4 4 5 7 9
5 5 7 4 5 5 6 8 8 5 5 7 10 11 12 14 13 10 10 11 12 15 15 14 12 11 10 9 7 9 8 7 6 5 4 4 4 4 4 5 5 5 5
10 9 9 8 5 6 6 7 7 7 9 10 9 11 11 11 10 9 8 8 8 9 9 10 11 10 10 9 9 9 9 8 6 4 3 2 1 2 3 3 4 4 4
14 14 13 11 10 9 8 8 10 9 7 13 12 13 14 14 14 13 12 11 12 12 13 13 14 14 13 10 7 5 4 4 3 3 2 2 2 1 1 3 4 3 3
16 16 14 13 11 10 10 8 9 8 11 11 12 14 15 17 17 16 17 15 15 14 14 14 15 12 11 10 8 6 6 4 3 2 1 1 2 3 4 4 5 4 4
17 18 17 14 13 12 10 10 8 7 7 9 9 11 14 16 19 19 19 21 20 19 18 17 17 15 13 12 11 9 6 6 5 3 2 2 2 3 4 5 5 5 6
17 18 18 16 14 14 10 9 12 8 9 12 11 8 7 7 12 18 20 22 26 25 23 21 19 18 13 11 14 14 12 10 10 10 8 6 5 4 5 5 5 6 7
Wind_Direction
222 223 224 226 228 235 239 244 245 248 247 249 258 251 238 232 235 238 235 242 246 247 243 259 259 254 247 253 260 281 322 219 210 144 67 86 71 78 78 66 52 44 39
222 224 227 227 229 234 243 245 246 249 244 248 252 258 233 237 231 234 238 242 249 243 239 240 251 242 236 233 237 236 243 228 214 203 237 79 58 35 45 21 18 20 17
218 220 226 229 231 235 237 247 245 246 247 246 244 251 248 231 232 239 236 242 249 257 254 265 259 253 250 232 232 212 205 204 205 226 210 261 19 32 43 52 40 81 43
217 217 219 226 231 235 239 247 249 252 249 246 245 249 238 242 245 242 249 240 240 249 262 262 273 261 237 238 227 220 201 219 220 221 225 205 159 29 42 26 36 75 50
216 208 211 220 228 237 241 245 249 241 252 261 261 251 242 244 245 245 240 243 250 250 251 256 265 273 231 241 243 229 231 221 210 213 218 207 168 104 49 15 11 63 65
206 184 186 208 218 234 238 233 237 242 252 261 267 267 262 254 245 241 241 243 245 242 243 249 256 250 241 234 233 246 232 218 219 211 207 226 210 214 7 351 24 44 42
184 185 198 209 244 272 263 230 214 225 229 254 281 281 276 270 260 249 238 237 245 245 248 253 237 244 236 237 226 222 225 214 211 258 287 277 259 225 284 160 110 103 82
158 190 214 211 203 186 172 133 144 186 230 259 301 308 301 292 283 284 275 251 245 246 238 247 261 268 256 224 193 173 174 193 243 252 255 262 256 244 228 168 132 136 129
172 170 194 204 191 180 186 163 156 167 273 285 287 287 300 297 295 302 289 261 224 220 209 210 240 248 241 207 185 165 132 103 106 112 101 95 97 119 136 129 104 147 111
166 181 203 213 214 209 212 233 170 351 291 264 248 266 284 275 267 248 285 279 185 158 172 191 200 227 225 206 189 161 137 128 125 116 106 99 92 91 92 95 97 106 110
129 134 118 123 130 112 141 142 144 115 114 140 120 51 265 269 246 210 229 217 179 153 152 146 150 157 163 163 162 153 141 141 131 117 106 96 89 82 78 78 82 91 94
106 110 106 104 99 73 71 80 73 81 112 113 120 107 70 35 252 203 227 213 199 189 159 149 140 136 125 138 147 144 141 141 129 115 101 86 81 81 82 78 76 79 79
105 97 105 113 109 115 121 118 117 132 138 134 131 122 109 85 77 78 116 139 146 148 143 147 147 149 152 144 135 135 135 125 115 100 88 85 83 87 98 94 93 76 70
105 106 107 115 116 115 118 123 133 135 135 135 131 120 111 107 102 99 104 102 101 123 123 126 128 132 124 118 124 116 106 106 103 100 97 91 87 80 72 69 72 113 58
112 108 105 103 104 111 107 107 117 132 140 138 120 110 100 90 89 113 140 142 144 143 136 135 124 109 97 91 88 91 91 89 88 91 96 92 81 75 64 55 57 59 66
115 112 111 114 112 115 117 112 96 98 124 108 87 74 83 72 64 102 145 142 144 157 150 138 130 130 136 130 124 106 86 78 73 69 70 74 64 58 61 57 57 58 60
123 116 117 121 118 115 116 120 118 102 97 102 100 87 73 70 75 96 127 139 155 166 146 145 139 137 139 139 130 120 112 110 121 114 89 74 70 70 62 55 52 54 48
131 125 119 114 112 117 122 116 109 112 106 107 110 107 115 117 101 108 115 120 127 145 142 139 134 137 133 125 120 116 111 109 103 100 100 92 82 75 74 67 57 48 44
144 139 148 141 115 96 107 114 111 114 123 126 113 113 125 126 125 121 126 115 118 115 122 128 134 134 132 130 123 122 119 110 103 96 83 80 77 66 59 58 58 66 61
183 172 164 149 138 139 172 156 145 138 131 134 137 137 149 151 148 142 133 133 126 120 139 142 136 127 125 126 125 121 114 105 101 95 94 96 92 81 93 91 67 46 40
217 209 203 239 264 249 208 198 202 217 215 193 189 183 174 178 172 172 164 157 149 154 156 153 141 141 146 141 148 150 141 135 129 122 115 115 103 75 64 61 51 41 34
233 227 223 230 231 214 233 234 238 250 232 214 198 196 200 206 205 188 172 163 158 160 162 158 155 162 164 165 168 176 164 157 152 139 141 129 51 57 68 53 45 33 24
243 230 224 221 217 216 217 221 225 233 227 210 212 204 208 212 206 204 197 185 177 172 171 170 169 168 169 160 157 161 152 136 107 109 150 191 228 285 360 16 12 11 8
242 235 233 232 228 229 232 237 241 254 243 239 237 237 235 230 225 224 214 204 196 190 186 181 183 177 178 179 173 162 168 163 139 104 113 232 264 306 331 335 331 320 322
240 235 232 232 234 238 241 230 233 243 236 234 235 243 243 242 234 232 228 219 214 208 203 199 199 200 204 206 210 204 196 203 208 206 208 220 281 316 317 302 300 298 292
243 237 236 236 229 235 241 229 203 238 279 280 249 227 231 236 236 234 235 231 225 224 222 220 221 222 224 237 242 231 227 234 235 235 241 243 247 267 287 298 295 284 275
Height
832 836 839 842 846 848 850 852 854 855 856 858 860 860 861 862 863 865 866 866 866 866 867 866 866 866 866 866 865 864 864 864 865 864 862 862 860 858 856 855 855 855 853
827 831 834 838 842 845 847 849 852 853 853 854 857 856 857 859 861 862 863 864 864 864 864 864 865 865 866 866 865 865 865 864 864 863 862 862 861 858 857 857 856 855 854
824 827 830 834 838 840 843 846 848 849 850 850 852 854 854 855 857 859 860 861 861 862 862 862 863 864 864 864 865 864 864 864 863 862 862 861 861 859 858 858 857 856 856
819 824 828 831 834 837 839 842 844 846 846 848 848 849 850 852 854 856 858 858 858 858 859 860 860 859 861 861 862 863 862 862 862 862 861 861 860 859 858 857 857 857 858
816 819 825 829 832 835 836 837 840 842 844 845 846 848 849 850 851 852 853 855 855 856 857 857 858 858 858 859 859 860 861 861 861 861 860 859 859 859 859 859 857 857 858
816 818 821 827 830 831 833 834 835 838 840 841 844 845 846 846 848 849 850 850 852 853 854 854 855 856 856 857 857 858 860 860 860 860 859 859 859 858 857 857 858 858 858
816 818 820 825 827 830 830 831 832 835 836 838 840 842 843 843 843 843 845 846 848 849 850 851 852 854 854 854 855 856 857 857 857 858 858 858 857 857 857 856 858 859 860
815 817 822 824 826 827 829 828 830 833 834 834 837 840 842 842 842 843 843 843 843 845 847 849 852 853 853 853 853 854 856 855 855 855 855 854 854 855 857 858 858 858 860
813 817 818 823 825 825 827 826 829 829 831 831 834 837 839 841 843 843 842 842 842 842 844 848 850 851 853 851 853 853 854 855 856 855 855 855 854 854 855 857 858 859 860
813 815 820 824 826 825 823 826 826 823 827 829 831 834 833 837 841 840 841 841 841 842 843 846 849 849 852 852 851 852 853 856 857 858 857 857 857 857 856 856 857 858 860
814 816 815 819 826 825 826 825 824 820 826 830 830 828 839 836 837 837 838 839 841 842 845 847 849 851 852 852 852 853 853 857 858 858 858 859 859 859 859 860 860 860 860
819 820 824 824 827 825 826 823 822 826 828 830 834 839 840 841 839 839 837 838 840 840 842 846 848 852 853 854 854 855 857 859 860 860 861 862 862 863 864 864 863 862 863
821 825 826 827 827 828 830 830 830 832 837 838 839 841 842 841 841 841 839 839 841 843 845 848 850 852 854 855 857 858 859 861 862 864 866 866 867 868 867 866 866 866 865
826 826 827 828 831 832 834 835 834 837 838 841 843 843 844 845 844 844 843 844 847 848 849 851 852 855 857 858 859 861 863 862 865 867 868 870 871 870 869 869 867 866 866
829 830 831 831 833 834 835 837 839 840 843 843 843 845 846 847 846 846 847 848 848 849 851 854 856 859 862 864 866 864 867 866 868 871 871 871 871 872 870 870 867 866 866
832 833 833 833 835 838 838 838 841 842 843 846 847 848 848 848 849 848 850 851 852 853 857 858 859 862 864 866 868 868 869 870 872 874 875 874 875 875 872 871 870 868 867
838 838 838 840 841 842 843 843 843 845 845 847 849 849 850 851 850 850 851 853 856 859 860 862 863 865 868 869 870 869 869 870 872 874 875 875 875 876 875 874 874 870 870
840 841 842 843 844 845 846 845 847 847 846 848 849 850 847 852 852 853 853 857 859 862 863 865 865 870 871 871 873 872 873 874 876 875 875 876 875 877 877 874 872 873 872
842 844 844 844 844 846 846 846 846 849 853 855 853 853 852 854 853 854 857 856 862 866 871 872 871 870 871 875 875 878 878 876 876 878 878 877 876 877 876 875 876 874 872
843 844 845 846 848 848 848 849 850 852 853 854 855 857 858 859 860 859 856 856 856 862 869 872 874 873 874 875 877 878 880 879 879 878 877 878 880 880 880 877 874 874 871
840 842 843 844 845 846 847 849 850 851 852 854 858 858 858 860 860 860 860 861 860 861 866 869 869 871 873 874 877 877 879 879 880 879 880 880 880 879 879 875 873 871 872
842 842 843 843 844 846 846 847 848 848 848 850 852 856 858 859 859 860 861 862 864 865 867 868 870 874 875 876 876 878 876 876 876 875 877 878 880 879 877 875 873 872 872
838 840 842 844 846 847 848 849 848 848 848 849 850 852 853 855 857 860 863 864 865 865 867 869 871 873 875 876 877 877 877 877 875 874 875 877 879 879 876 873 871 871 870
832 834 837 839 840 841 842 842 843 842 843 844 845 847 849 852 854 856 858 861 863 864 866 868 869 871 873 875 876 876 877 875 875 875 876 877 877 876 873 872 872 871 870
828 830 832 834 836 837 838 838 839 840 840 841 842 844 846 847 850 852 855 858 860 861 863 865 867 869 871 872 873 873 873 874 875 875 876 875 875 873 871 872 871 870 871
824 826 828 830 832 833 833 836 836 837 839 842 842 843 844 845 846 849 851 853 855 857 860 862 864 866 868 868 869 869 871 872 872 873 873 873 872 871 870 869 868 868 868